Regional Weather Roundup
Issued by NWS

Home | Current Version | Previous Version | Graphics & Text | Print | Product List | Glossary On
Versions: 1 2 3 4 5 6 7 8 9 10 11 12 13 14 15 16 17 18 19 20 21 22 23 24 25 26 27
000
ASUS45 KCYS 200210
RWRWY

WYOMING REGIONAL WEATHER ROUNDUP
NATIONAL WEATHER SERVICE CHEYENNE WY
800 PM MDT SAT APR 19 2014

NOTE:  "FAIR" INDICATES FEW OR NO CLOUDS BELOW 12,000 FEET
WITH NO SIGNIFICANT WEATHER AND/OR OBSTRUCTIONS TO VISIBILITY.

WYZ001-200300-
YELLOWSTONE NATIONAL PARK

CITY           SKY/WX    TMP DP  RH WIND       PRES   REMARKS
LK YELLOWSTONE   N/A     43  16  33 VRB3      30.07F
W YELLOWSTONE  NOT AVBL

$$
WYZ002>013-054>058-071-098>099-200300-
NORTHERN WYOMING

CITY           SKY/WX    TMP DP  RH WIND       PRES   REMARKS
JACKSON        CLEAR     52  23  32 S6        30.02
CODY           PTCLDY    57  21  24 SW5       29.93R
GREYBULL       CLEAR     63  23  21 CALM      29.88F
WORLAND        CLEAR     54  31  41 NE6       29.88F
SHERIDAN         N/A     50  36  57 SW6         N/A
BUFFALO        PTCLDY    54  28  36 NW7       29.96S
GILLETTE       PTCLDY    53  29  39 SE12      29.94F
HULETT         FAIR      50  32  50 E9        29.98
NEWCASTLE      FAIR      50  32  50 SE8       29.99

$$
WYZ014>020-022>026-101>103-200300-
CENTRAL WYOMING

CITY           SKY/WX    TMP DP  RH WIND       PRES   REMARKS
BIG PINEY      CLEAR     50  24  36 W9        30.07S
PINEDALE       CLEAR     46  28  49 N5        30.08R
DUBOIS         FAIR      46  16  29 W12       30.04S
LANDER         MOCLDY    58  23  26 S5        29.93F
RIVERTON       MOCLDY    55  14  19 NW9       29.95S
CASPER         MOCLDY    55  37  50 E8        29.95R
DOUGLAS        PTCLDY    55  41  59 E13       29.96S

$$
WYZ021-027>030-104>119-200300-
SOUTHERN WYOMING

CITY           SKY/WX    TMP DP  RH WIND       PRES   REMARKS
EVANSTON       MOCLDY    51  28  41 SW8       30.08S
KEMMERER       PTCLDY    50  32  50 W10       30.08S
FORT BRIDGER   FAIR      56  27  32 W14       30.10S
ROCK SPRINGS   MOCLDY    55  31  39 W9        30.05S
DIXON          FAIR      50  40  67 CALM      30.10R
RAWLINS        MOCLDY    52  33  48 SW9       30.05R
SARATOGA       FAIR      46  32  57 W3        30.08S
LARAMIE        CLOUDY    48  40  73 SE10      30.09R
CHEYENNE       PTCLDY    52  41  66 S15G29    30.06R
TORRINGTON     PTCLDY    58  34  40 E13       29.97R
PINE BLUFFS    CLOUDY    54  36  50 S12       30.05R

$$



USA.gov is the U.S. government's official web portal to all federal, state and local government web resources and services.